Regional Weather Roundup
Issued by NWS

Home | Current Version | Previous Version | Text Only | Print | Product List | Glossary Off
Versions: 1 2 3 4 5 6 7 8 9 10 11 12 13 14 15 16 17 18 19 20 21 22 23 24 25 26 27 28 29 30 31 32 33 34 35 36 37 38 39 40 41 42 43 44 45 46 47 48 49 50

000
ASUS43 KDMX 221403
RWRIA

WEATHER ROUNDUP FOR IOWA
NATIONAL WEATHER SERVICE DES MOINES IA
900 AM CDT FRI JUL 22 2016

NOTE: "FAIR" INDICATES FEW OR NO CLOUDS BELOW 12,000 FEET WITH NO
SIGNIFICANT WEATHER AND/OR OBSTRUCTIONS TO VISIBILITY.

* - THESE STATIONS ARE NOT NWS STATIONS...THUS NOT UNDER NWS
QUALITY CONTROL.  THEY ALSO DO NOT REPORT WEATHER SUCH
AS PRECIPITATION OR FOG.

IAZ001>003-012>014-020>022-031>034-043>046-221500-
   NORTHWEST IOWA

CITY           SKY/WX    TMP DP  RH WIND       PRES   REMARKS
CARROLL *      MOSUNNY   81  77  89 S9G17     29.97R HX  88
CHEROKEE *     PTSUNNY   83  81  95 E3        29.95S HX  96
DENISON *      CLOUDY    81  77  89 S9        29.94R HX  88
LE MARS *      SUNNY     84  81  89 E7        29.94S HX  98
SHELDON *      CLOUDY    81  81 100 NE8       29.96S FOG     HX  91
SIOUX CITY     SUNNY     85  76  74 SE7       29.92R HX  94
SPENCER        FOG       79  78  97 E8        29.98R VSB 1/4 HX  83
STORM LAKE *   SUNNY     82  79  89 S8        29.97S HX  93
$$

IAZ055>058-069>071-079>083-090>094-221500-
   SOUTHWEST IOWA

CITY           SKY/WX    TMP DP  RH WIND       PRES   REMARKS
ATLANTIC *     MOSUNNY   82  75  78 SE8       29.98S HX  89
CLARINDA *       N/A     82  75  78 MISG      30.02R HX  89
COUNCIL BLFS * CLOUDY    81  75  83 SE8       29.95S HX  86
CRESTON *      MOSUNNY   79  73  83 S15G24    30.03F HX  82
HARLAN  *      CLOUDY    81  75  83 SE7       30.00S HX  86
LAMONI         CLOUDY    75  70  84 S14G23    30.05R
RED OAK *      CLOUDY    82  75  78 SE8       29.98R HX  89
SHENANDOAH *   MOSUNNY   81  77  89 S3        29.97R HX  88
$$

IAZ047>049-059>061-072>074-084-221500-
   CENTRAL IOWA

CITY           SKY/WX    TMP DP  RH WIND       PRES   REMARKS
AMES           CLOUDY    79  74  84 S12       29.99S HX  82
ANKENY *         N/A    N/A N/A N/A MISG        N/A
BOONE *        CLOUDY    77  73  88 S12G17    29.99S
CHARITON *       N/A    N/A N/A N/A MISG        N/A
DES MOINES     PTSUNNY   79  72  79 S14       29.99F HX  82
GRINNELL*      CLOUDY    76  70  82 S9G17     30.02S
KNOXVILLE *    PTSUNNY   75  70  83 S15       29.99F
MARSHALLTOWN   CLOUDY    78  72  81 S13       30.00S HX  80
NEWTON *       CLOUDY    77  73  88 S8G17     30.00F
PELLA *        PTSUNNY   77  69  78 S12       30.02F
PERRY *          N/A     78  75  91 S14G20    29.99S HX  80
$$

IAZ004>006-015-016-023>025-035-036-221500-
   NORTH CENTRAL IOWA

CITY           SKY/WX    TMP DP  RH WIND       PRES   REMARKS
ALGONA *       CLOUDY    79  77  94 SE9       30.00R HX  83
ESTHERVILLE    FOG       78  78 100 SE7       29.99R VSB 1/4 HX  81
FORT DODGE *   SUNNY     81  73  78 S7        30.00R HX  85
MASON CITY     PTSUNNY   77  72  84 S8        30.02F
FOREST CITY *  CLOUDY    77  73  88 SE8       30.01S
IOWA FALLS *     N/A     79  72  79 S12       30.02S HX  81
$$

IAZ007>011-017>019-026>030-037>042-050>054-066-221500-
   NORTHEAST IOWA

CITY           SKY/WX    TMP DP  RH WIND       PRES   REMARKS
CEDAR RAPIDS   CLOUDY    73  72  96 S7        30.01S
CHARLES CITY * MOSUNNY   75  75 100 S6        30.03S
CLINTON *      PTSUNNY   75  70  84 W6        30.04R
DECORAH *      CLOUDY    75  73  94 CALM      30.02S
DUBUQUE        MOSUNNY   73  70  90 SW9       30.04S
MONTICELLO *   PTSUNNY   75  72  88 SW3       30.02S
OELWEIN *      CLOUDY    75  72  88 S6        30.04R
WATERLOO       CLOUDY    77  70  79 S9        30.00S
$$

IAZ064-065-067-068-078-221500-
   EAST CENTRAL IOWA

CITY           SKY/WX    TMP DP  RH WIND       PRES   REMARKS
DAVENPORT      CLOUDY    74  68  81 SW12      30.04R
IOWA CITY      CLOUDY    73  70  90 S7        30.04R
MT. PLEASANT * CLOUDY    72  72 100 S8        30.04R
MUSCATINE *    CLOUDY    73  68  83 S8        30.03S
QUAD CITIES    CLOUDY    75  69  81 SW9       30.02S
$$

IAZ062-063-075>077-085>089-095>099-221500-
   SOUTHEAST IOWA

CITY           SKY/WX    TMP DP  RH WIND       PRES   REMARKS
BURLINGTON     CLOUDY    70  69  97 SW13      30.04S
FAIRFIELD *    CLOUDY    72  68  88 S8G16     30.03R
KEOKUK *       CLOUDY    70  70 100 S9G16     30.04F
CENTERVILLE *    N/A     72  68  88 S12       30.05F
OTTUMWA        CLOUDY    72  68  87 SW15G28   30.00F FOG
WASHINGTON *   CLOUDY    72  70  94 S10       30.04R
$$

ABBREVIATIONS USED IN REMARKS
   TC - TEMPERATURES IN CELSIUS
  WCI - WIND CHILL INDEX
   HX - HEAT INDEX
  VSB - VISIBILITY
$$





USA.gov is the U.S. government's official web portal to all federal, state and local government web resources and services.